Regional Weather Roundup
Issued by NWS

Home | Current Version | Previous Version | Graphics & Text | Print | Product List | Glossary On
Versions: 1 2 3 4 5 6 7 8 9 10 11 12 13 14 15 16 17 18 19 20 21 22 23 24 25 26 27 28 29 30 31 32 33 34 35 36 37 38 39 40 41 42 43 44 45 46 47 48 49 50
000
ASUS43 KIND 211709
RWRIN

WEATHER ROUNDUP FOR INDIANA
NATIONAL WEATHER SERVICE INDIANAPOLIS IN
1200 PM EST TUE FEB 21 2017

NOTE: "FAIR" INDICATES FEW OR NO CLOUDS BELOW 12,000 FEET WITH NO
SIGNIFICANT WEATHER AND/OR OBSTRUCTIONS TO VISIBILITY.

* - STATION DOES NOT REPORT WEATHER SUCH AS PRECIPITATION OR FOG.

+ - STATION NOT QUALITY CONTROLLED BY THE NATIONAL WEATHER SERVICE.
    USE DATA WITH CAUTION...ESPECIALLY DEWPOINT AND RELATIVE
    HUMIDITY OBSERVATIONS.

INZ001>003-010>013-019-020-211800-
NORTHWEST INDIANA

CITY           SKY/WX    TMP DP  RH WIND       PRES   REMARKS
GARY /AIRPORT/ PTSUNNY   61  55  82 S5        29.96F
KNOX *+        CLOUDY    54  43  66 SW5       29.97S
LA PORTE +     RAIN      54  52  94 SW5       29.98R
MICHIGAN CITY+ CLOUDY    59  55  88 SW5       29.96F
MONTICELLO +   CLOUDY    57  48  71 S3        29.97S
RENSSELAER +   CLOUDY    55  54  94 S5        29.98S
VALPARAISO     LGT RAIN  56  55  97 S3        29.97S FOG

$$

LMZ046-743>745-211800-
SOUTHERN LAKE MICHIGAN

STATION/POSITION TIME  TEMP    WIND        PRES    WAVE
                       AIR SEA DIR/SP/G            HT
                 (UTC) (F)     (DEG/KT/KT) (MB)    (FT)
BURNS HARBOR     1640   56     200/  8/ 10 1014.9S
MICHIGAN CITY    1640   57     150/  8/  9   N/A

$$

INZ004-005-014>016-021>024-211800-
NORTH CENTRAL INDIANA

CITY           SKY/WX    TMP DP  RH WIND       PRES   REMARKS
ELKHART        LGT RAIN  54  50  87 CALM      29.97S
GOSHEN         CLOUDY    56  49  77 S8        29.98R
LOGANSPORT +   LGT RAIN  55  50  82 S8        29.99F
PERU/GRISSOM   LGT RAIN  57  49  75 SW6       29.98S
ROCHESTER +    PTSUNNY   59  50  72 S7        29.98F
SOUTH BEND     CLOUDY    54  53  97 S8        29.97F
WARSAW +       CLOUDY    57  50  77 S3        29.97F

$$

INZ006>009-017-018-025>027-211800-
NORTHEAST INDIANA

CITY           SKY/WX    TMP DP  RH WIND       PRES   REMARKS
ANGOLA *+      MOSUNNY   54  52  94 SW7       29.96S
AUBURN +       CLOUDY    55  45  67 SW3       29.99S
FORT WAYNE     CLOUDY    57  46  66 SW9       30.00S
HUNTINGTON +   CLOUDY    57  46  65 W3        29.99S
KENDALLVILLE + PTSUNNY   56  50  79 SW6       29.98S

$$

INZ028-029-035-036-043>045-051>053-211800-
WEST CENTRAL INDIANA

CITY           SKY/WX    TMP DP  RH WIND       PRES   REMARKS
GREENCASTLE +  CLOUDY    61  45  55 SW3       30.00R
LAFAYETTE      LGT RAIN  58  49  72 CALM      29.97F
TERRE HAUTE    LGT RAIN  58  49  72 S6        29.99R

$$

INZ030>032-037>040-046>048-054>057-064-065-211800-
CENTRAL INDIANA

CITY           SKY/WX    TMP DP  RH WIND       PRES   REMARKS
ANDERSON       MOSUNNY   61  46  59 S6        30.00S
CP ATTERBURY + CLOUDY    61  45  55 CALM      30.00F
COLUMBUS       CLOUDY    57  48  72 CALM      30.01S
FRANKFORT +    DRIZZLE   59  52  77 CALM      30.00F
GREENWOOD *+   CLOUDY    59  48  66 S6        30.00S
INDIANAPOLIS   CLOUDY    60  47  61 S8        29.99S
-EAGLE CREEK   CLOUDY    62  46  55 VRB3      29.98R
KOKOMO +       LGT RAIN  57  50  77 W3        30.00S
MARION +       CLOUDY    57  46  66 W6        30.00S
MT COMFORT *+  CLOUDY    59  46  63 S8        30.00S
SHELBYVILLE    CLOUDY    60  45  57 S10       29.99F
ZIONSVILLE +   PTSUNNY   59  47  63 S12       30.00R

$$

INZ033-034-041-042-049-050-058-059-211800-
EAST CENTRAL INDIANA

CITY           SKY/WX    TMP DP  RH WIND       PRES   REMARKS
MUNCIE         CLOUDY    62  45  53 SW6       29.99S

$$

INZ060-061-067>069-081>083-085>088-211800-
SOUTHWEST INDIANA

CITY           SKY/WX    TMP DP  RH WIND       PRES   REMARKS
EVANSVILLE     CLOUDY    63  48  58 E3        29.98F
HUNTINGBURG *+ CLOUDY    63  50  63 S6        30.00S
WASHINGTON +   PTSUNNY   61  47  60 S8        29.98F

$$

INZ062-063-066-070>080-084-089>092-211800-
SOUTH CENTRAL AND SOUTHEAST INDIANA

CITY           SKY/WX    TMP DP  RH WIND       PRES   REMARKS
BEDFORD +      CLOUDY   N/A N/A N/A S5        30.00R
BLOOMINGTON    CLOUDY    60  46  59 S3        30.00R
MADISON *+     CLOUDY    61  45  55 CALM      30.03S
NORTH VERNON + CLOUDY    61  45  55 S6        30.01F
SEYMOUR +      PTSUNNY   63  48  59 S5        30.01S

$$




USA.gov is the U.S. government's official web portal to all federal, state and local government web resources and services.